Content
SEND FEEDBACK

Daily
Averages
Monthly
Summary
United States of America

MOUNT SHASTA, CALIFORNIA


Home > North America > United States > California
Elevation: 3679 feet     Latitude: 41 19N     Longitude: 122 19W

WEATHER
 
SELECT A DAY
Number of Records: 231,336;   Date Range: 1/1/95 - 7/26/14
 
SHARE

PRINT THIS DATA

[ ← Previous Day ]
WEATHER ALMANAC - NOVEMBER 13, 2013
[ Next Day → ]
[ °C ]   °F
Weather ElementAverageHighLow
Temperature50.3 °F64.9 °F (12:56 pm)37 °F (10:56 pm)
Dewpoint39.4 °F45 °F (8:56 am)30.9 °F (9:56 pm)
Humidity67.8 %89 % (5:56 am)43 % (1:56 pm)
Barometer30.35 in30.40 in (5:56 am)30.26 in (11:56 pm)
Wind Speed1.9 mph6.9 mph (12:56 pm)
Weather ElementAverage
Visibility9.4 mi
Wind DirectionNNE (17 °)

Weather ElementTotal
Precipitation---
Heating Degree Days14.1 (Base 65)
Growing Degree Days1 (Base 50)
Averaged from 23 records on November 13, 2013
WEATHER CONDITIONS BREAKOUT
WIND DIRECTION BREAKOUT
WEATHER BY HOUR - NOVEMBER 13, 2013
[ °C ]   °F
Local TimeTemperatureDewpointHumidityBarometerVisibilityWind DirectionWind SpeedGust SpeedPrecipitationEventsConditions
1:56 AM43.0 °F35.1 °F74 %30.39 in10.0 miCalmClear
2:56 AM43.0 °F36.0 °F76 %30.38 in10.0 miENE (70°)3.5 mphPartly Cloudy
3:56 AM48.0 °F41.0 °F77 %30.38 in10.0 miCalmClear
4:56 AM45.0 °F41.0 °F86 %30.39 in10.0 miCalmClear
5:56 AM44.1 °F41.0 °F89 %30.40 in10.0 miCalmClear
6:56 AM46.9 °F42.1 °F83 %30.40 in10.0 miCalmClear
7:56 AM48.9 °F43.0 °F80 %30.40 in10.0 miVariable5.8 mphClear
8:56 AM53.1 °F45.0 °F74 %30.40 in10.0 miVariable3.5 mphClear
9:56 AM57.0 °F45.0 °F64 %30.38 in10.0 miCalmClear
10:56 AM57.9 °F45.0 °F62 %30.39 inNorth
11:56 AM63.0 °F44.1 °F50 %30.37 inNorth
12:56 PM64.9 °F43.0 °F45 %30.35 in10.0 miVariable6.9 mph
1:56 PM64.9 °F42.1 °F43 %30.34 in10.0 miVariable6.9 mphClear
2:56 PM64.0 °F42.1 °F45 %30.32 in10.0 miNW (310°)5.8 mphClear
3:56 PM62.1 °F41.0 °F46 %30.31 in10.0 miVariable3.5 mphClear
4:56 PM55.9 °F41.0 °F57 %30.33 in10.0 miNorth (10°)3.5 mphClear
5:56 PM50.0 °F39.0 °F66 %30.34 in7.0 miCalmClear
6:56 PM46.0 °F37.0 °F71 %30.33 in10.0 miCalmClear
7:56 PM44.1 °F35.1 °F71 %30.32 in10.0 miCalmClear
8:56 PM42.1 °F33.1 °F70 %30.30 in8.0 miCalmClear
9:56 PM39.0 °F30.9 °F73 %30.30 in7.0 miCalmClear
10:56 PM37.0 °F30.9 °F79 %30.30 in5.0 miCalmHaze
11:56 PM37.9 °F32.0 °F79 %30.26 in10.0 miCalmClear
Hourly data recorded from KMHS, located miles away from Mount Shasta, California







STORIES FROM OUR PARTNERS